El Dorado, AR

11:09 AM CST on January 23, 2017 (GMT -0600)
South Arkansas Regional At Goodwin

Weather History for KELD - March, 2014

Change the Weather History Date:

Wednesday, March 26, 2014

  Actual Average Record
Temperature  
Mean Temperature 48 °F 58 °F  
Max Temperature 64 °F 71 °F 89 °F (1907)
Min Temperature 31 °F 46 °F 22 °F (1955)
Degree Days  
Heating Degree Days 17 8  
Month to date heating degree days 412 274  
Since 1 July heating degree days 3019 2502  
Cooling Degree Days 0 1  
Month to date cooling degree days 0 17  
Year to date cooling degree days 0 23  
Moisture  
Dew Point 29 °F    
Average Humidity 59    
Maximum Humidity 92    
Minimum Humidity 25    
Precipitation  
Precipitation T in 0.15 in 4.20 in (1934)
Month to date precipitation 2.81 4.03  
Year to date precipitation 7.39 13.12  
Snow  
Snow 0.00 in - - ()
Month to date snowfall T  
Since 1 July snowfall 1.1  
Snow Depth 0.00 in    
Sea Level Pressure  
Sea Level Pressure 30.22 in    
Wind  
Wind Speed 8 mph (ESE)    
Max Wind Speed 18 mph    
Max Gust Speed 26 mph    
Visibility 10 miles    
Events Rain    
T = Trace of Precipitation, MM = Missing Value Source: NWS Daily Summary

Daily Weather History Graph

Daily Weather History Graph

Search for Another Location

Airport or City:

Trip Planner

Search our weather history database for the weather conditions in past years. The results will help you decide how hot, cold, wet, or windy it might be!

Date:

Astronomy

Mar. 26, 2014 Rise Set
Actual Time 7:06 AM CDT 7:27 PM CDT
Civil Twilight 6:42 AM CDT 7:52 PM CDT
Nautical Twilight 6:13 AM CDT 8:21 PM CDT
Astronomical Twilight 5:43 AM CDT 8:50 PM CDT
Moon 4:03 AM CDT (3/26) 3:18 PM CDT (3/26)
Length of Visible Light 13h 09m
Length of Day
12h 20m
Waning Crescent, 21% of the Moon is Illuminated
Mar 26
Waning Crescent
Mar 30
New
Apr 7
First Quarter
Apr 15
Full
Apr 22
Last Quarter

Hourly Weather History & Observations

Time (CDT) Temp. Windchill Dew Point Humidity Pressure Visibility Wind Dir Wind Speed Gust Speed Precip Events Conditions
12:53 AM 35.1 °F - 32.0 °F 89% 30.29 in 10.0 mi Calm Calm - N/A   Clear
1:53 AM 35.1 °F - 30.9 °F 85% 30.28 in 10.0 mi Calm Calm - N/A   Clear
2:53 AM 33.1 °F - 30.0 °F 89% 30.27 in 9.0 mi Calm Calm - N/A   Clear
3:53 AM 32.0 °F - 30.0 °F 92% 30.27 in 10.0 mi Calm Calm - N/A   Clear
4:53 AM 30.9 °F 26.2 °F 28.0 °F 89% 30.27 in 7.0 mi NE 4.6 mph - N/A   Clear
5:53 AM 33.1 °F 28.7 °F 28.9 °F 85% 30.28 in 8.0 mi ENE 4.6 mph - N/A   Clear
6:53 AM 33.1 °F 26.9 °F 28.0 °F 82% 30.30 in 10.0 mi NE 6.9 mph - N/A   Clear
7:53 AM 34.0 °F - 30.0 °F 85% 30.32 in 10.0 mi Calm Calm - N/A   Clear
8:53 AM 42.1 °F 37.1 °F 30.0 °F 62% 30.34 in 10.0 mi ESE 8.1 mph - N/A   Clear
9:53 AM 48.0 °F - 28.0 °F 46% 30.34 in 10.0 mi SSE 11.5 mph - N/A   Clear
10:53 AM 52.0 °F - 27.0 °F 38% 30.33 in 10.0 mi SE 8.1 mph - N/A   Clear
11:53 AM 55.0 °F - 27.0 °F 34% 30.29 in 10.0 mi ESE 9.2 mph - N/A   Clear
12:53 PM 59.0 °F - 28.9 °F 32% 30.25 in 10.0 mi ESE 11.5 mph 17.3 mph N/A   Clear
1:53 PM 61.0 °F - 28.9 °F 30% 30.22 in 10.0 mi ESE 12.7 mph - N/A   Clear
2:53 PM 62.1 °F - 26.1 °F 25% 30.17 in 10.0 mi SSE 16.1 mph 24.2 mph N/A   Clear
3:53 PM 63.0 °F - 28.9 °F 28% 30.15 in 10.0 mi ESE 12.7 mph 23.0 mph N/A   Overcast
4:53 PM 61.0 °F - 28.9 °F 30% 30.12 in 10.0 mi ESE 13.8 mph - N/A   Mostly Cloudy
5:53 PM 59.0 °F - 30.0 °F 33% 30.11 in 10.0 mi ESE 10.4 mph - N/A   Scattered Clouds
6:53 PM 59.0 °F - 30.0 °F 33% 30.11 in 10.0 mi ESE 9.2 mph - N/A   Overcast
7:53 PM 57.0 °F - 30.9 °F 37% 30.10 in 10.0 mi SE 8.1 mph - N/A   Overcast
8:53 PM 55.0 °F - 34.0 °F 45% 30.09 in 10.0 mi SE 5.8 mph - 0.00 in Rain Light Rain
9:53 PM 57.0 °F - 28.9 °F 34% 30.10 in 10.0 mi SSE 12.7 mph 20.7 mph 0.00 in   Overcast
10:53 PM 55.9 °F - 28.9 °F 36% 30.09 in 10.0 mi South 11.5 mph 18.4 mph N/A   Overcast
11:53 PM 54.0 °F - 30.9 °F 41% 30.08 in 10.0 mi SSE 10.4 mph - N/A   Overcast